Temp
-15 -15 -15 -15 -15 -15 -15 -16 -15 -15 -16 -16 -16 -16 -17 -17 -21 -22 -22 -21 -21 -21 -21 -21 -21 -21 -21 -20 -20 -20 -20 -21 -21 -21 -21 -22 -22 -22 -23 -23 -24 -24 -25 -24
-15 -15 -15 -15 -15 -15 -16 -16 -15 -15 -16 -16 -16 -16 -17 -18 -20 -21 -21 -21 -21 -21 -21 -20 -20 -21 -20 -20 -21 -21 -21 -21 -21 -21 -21 -22 -22 -22 -22 -22 -23 -24 -24 -25
-15 -15 -15 -15 -15 -15 -15 -16 -15 -16 -16 -16 -16 -16 -17 -18 -19 -21 -21 -21 -21 -21 -21 -20 -20 -20 -20 -20 -20 -20 -21 -21 -21 -21 -21 -22 -22 -22 -22 -22 -23 -23 -24 -25
-15 -15 -15 -15 -15 -15 -16 -16 -16 -16 -16 -16 -16 -16 -17 -17 -19 -20 -21 -21 -21 -21 -21 -21 -20 -20 -20 -20 -20 -20 -20 -21 -21 -21 -21 -21 -22 -22 -22 -22 -22 -23 -24 -24
-15 -15 -15 -15 -15 -15 -15 -16 -16 -16 -16 -16 -16 -16 -17 -17 -18 -20 -21 -21 -21 -21 -21 -21 -20 -20 -20 -20 -20 -20 -20 -20 -21 -21 -21 -21 -21 -22 -22 -22 -22 -22 -22 -22
-15 -15 -15 -15 -15 -16 -15 -16 -16 -16 -16 -16 -16 -16 -16 -17 -18 -19 -20 -21 -22 -21 -21 -21 -20 -20 -20 -20 -20 -20 -20 -20 -20 -20 -20 -20 -20 -21 -21 -22 -22 -22 -22 -22
-15 -15 -15 -15 -15 -16 -16 -16 -16 -16 -16 -16 -16 -16 -16 -17 -17 -18 -19 -20 -21 -21 -20 -20 -20 -20 -20 -20 -20 -20 -20 -20 -20 -20 -20 -20 -20 -20 -21 -21 -21 -22 -22 -22
-15 -15 -15 -15 -15 -16 -16 -16 -16 -16 -16 -16 -16 -16 -16 -16 -17 -17 -18 -19 -20 -21 -20 -20 -20 -20 -20 -20 -20 -20 -20 -19 -19 -19 -19 -20 -20 -20 -20 -21 -21 -21 -21 -22
-15 -16 -16 -15 -15 -16 -16 -16 -16 -16 -16 -16 -16 -16 -16 -16 -17 -17 -17 -18 -18 -20 -20 -20 -20 -20 -20 -20 -20 -20 -20 -20 -20 -19 -19 -19 -19 -20 -20 -20 -20 -21 -21 -21
-16 -16 -16 -16 -16 -16 -16 -16 -16 -16 -16 -16 -16 -16 -16 -16 -16 -17 -17 -17 -18 -18 -19 -20 -20 -20 -20 -20 -20 -20 -20 -20 -19 -18 -18 -19 -20 -20 -21 -20 -20 -20 -21 -21
-16 -16 -16 -16 -16 -16 -16 -16 -16 -16 -16 -16 -16 -16 -16 -16 -16 -16 -17 -17 -17 -18 -18 -18 -19 -19 -19 -19 -20 -20 -20 -20 -19 -18 -18 -19 -21 -22 -22 -21 -20 -20 -20 -20
-16 -16 -16 -16 -16 -16 -16 -16 -16 -16 -16 -16 -16 -16 -16 -16 -16 -16 -17 -17 -17 -17 -18 -18 -18 -18 -18 -19 -19 -19 -19 -19 -19 -19 -19 -19 -21 -22 -22 -21 -21 -20 -21 -21
-16 -16 -16 -16 -16 -16 -16 -16 -16 -16 -16 -16 -16 -16 -16 -16 -16 -16 -17 -17 -17 -17 -17 -17 -18 -18 -18 -18 -18 -18 -18 -19 -19 -19 -19 -20 -20 -20 -21 -21 -21 -21 -21 -21
-16 -16 -15 -15 -16 -16 -16 -16 -16 -16 -16 -16 -16 -16 -16 -16 -16 -16 -16 -17 -17 -17 -17 -17 -17 -17 -18 -18 -18 -18 -18 -18 -18 -19 -19 -19 -19 -20 -20 -20 -20 -20 -20 -20
-16 -16 -16 -16 -16 -16 -16 -16 -16 -16 -16 -16 -16 -16 -16 -16 -16 -16 -16 -16 -16 -17 -17 -17 -17 -17 -17 -17 -18 -18 -18 -18 -18 -18 -18 -18 -19 -19 -19 -19 -19 -20 -20 -20
-16 -16 -16 -16 -16 -16 -16 -16 -16 -16 -16 -16 -16 -16 -17 -17 -16 -16 -16 -16 -16 -16 -16 -17 -17 -17 -17 -17 -17 -17 -17 -18 -18 -18 -18 -18 -18 -18 -19 -19 -19 -19 -19 -20
-16 -16 -16 -16 -16 -16 -16 -16 -16 -16 -16 -16 -16 -16 -17 -17 -17 -17 -16 -16 -16 -16 -16 -17 -16 -17 -17 -17 -17 -17 -17 -17 -18 -18 -18 -18 -18 -18 -18 -19 -19 -19 -19 -19
-16 -16 -16 -16 -16 -16 -17 -17 -17 -17 -17 -17 -16 -17 -17 -17 -17 -17 -17 -17 -16 -16 -16 -16 -16 -16 -17 -17 -17 -17 -17 -17 -17 -17 -18 -18 -18 -18 -18 -18 -19 -19 -19 -19
-17 -17 -17 -17 -17 -17 -17 -17 -17 -17 -17 -17 -17 -17 -16 -17 -17 -16 -16 -16 -16 -16 -16 -16 -16 -16 -17 -17 -17 -17 -17 -17 -17 -18 -18 -18 -18 -18 -18 -18 -18 -19 -19 -19
-17 -17 -18 -18 -18 -18 -18 -18 -18 -18 -17 -17 -17 -17 -17 -16 -17 -16 -16 -16 -16 -16 -16 -16 -16 -16 -18 -17 -16 -17 -17 -17 -17 -18 -18 -18 -18 -18 -18 -18 -18 -19 -19 -19
-18 -18 -17 -18 -18 -18 -19 -19 -19 -18 -18 -18 -18 -17 -17 -17 -17 -17 -16 -16 -16 -16 -15 -16 -15 -16 -18 -18 -17 -17 -17 -17 -17 -17 -18 -18 -18 -18 -18 -18 -19 -19 -19 -19
-18 -18 -18 -18 -18 -18 -19 -19 -19 -19 -19 -18 -18 -18 -18 -18 -17 -17 -17 -17 -16 -16 -16 -15 -15 -17 -17 -18 -18 -17 -17 -17 -17 -17 -17 -18 -18 -18 -18 -18 -19 -19 -19 -19
-18 -18 -19 -19 -19 -19 -19 -18 -18 -18 -19 -19 -19 -19 -19 -19 -18 -17 -17 -16 -16 -16 -16 -16 -17 -16 -17 -17 -18 -18 -17 -17 -17 -17 -17 -18 -18 -18 -18 -18 -18 -19 -19 -19
-19 -19 -19 -19 -19 -19 -19 -19 -19 -19 -19 -19 -19 -18 -19 -19 -19 -19 -18 -17 -16 -16 -16 -18 -17 -16 -16 -17 -17 -17 -17 -17 -17 -17 -17 -17 -17 -18 -18 -18 -18 -18 -19 -19
-20 -20 -20 -20 -19 -20 -19 -19 -19 -19 -19 -19 -19 -19 -19 -19 -19 -19 -19 -18 -18 -17 -18 -18 -18 -17 -16 -17 -17 -17 -17 -17 -17 -17 -17 -17 -17 -18 -18 -18 -18 -18 -18 -19
-20 -20 -20 -20 -20 -20 -20 -20 -20 -20 -20 -20 -20 -20 -20 -20 -20 -20 -20 -19 -19 -19 -20 -20 -19 -18 -17 -16 -18 -17 -17 -17 -17 -17 -17 -17 -17 -18 -18 -17 -17 -18 -18 -19
-20 -20 -20 -20 -21 -21 -21 -21 -21 -21 -21 -21 -21 -20 -20 -20 -19 -19 -20 -21 -21 -21 -21 -20 -20 -20 -19 -18 -18 -19 -18 -18 -17 -17 -17 -17 -17 -17 -17 -17 -18 -18 -18 -18
Height
5775 5774 5775 5776 5777 5777 5777 5776 5775 5772 5766 5760 5750 5742 5733 5723 5714 5711 5708 5706 5703 5701 5699 5696 5694 5691 5688 5686 5685 5683 5681 5678 5674 5670 5665 5660 5655 5648 5642 5636 5631 5625 5620 5616
5774 5774 5775 5776 5777 5777 5777 5776 5774 5771 5765 5759 5751 5743 5734 5724 5716 5712 5709 5707 5704 5702 5700 5699 5695 5693 5690 5688 5686 5684 5681 5678 5674 5670 5666 5659 5652 5644 5638 5632 5625 5620 5614 5610
5773 5774 5774 5776 5777 5777 5777 5776 5774 5771 5765 5758 5752 5744 5736 5726 5717 5712 5709 5707 5704 5702 5701 5699 5696 5694 5692 5689 5687 5684 5681 5677 5673 5669 5663 5657 5650 5643 5636 5630 5623 5617 5610 5606
5773 5773 5774 5776 5777 5777 5777 5776 5774 5770 5766 5759 5753 5745 5737 5728 5718 5710 5706 5704 5702 5701 5699 5698 5696 5694 5692 5690 5687 5684 5680 5676 5672 5668 5662 5656 5649 5643 5637 5630 5624 5618 5611 5602
5772 5773 5775 5776 5776 5776 5776 5775 5773 5770 5766 5760 5754 5747 5739 5730 5720 5710 5703 5699 5698 5697 5697 5697 5696 5694 5693 5690 5687 5683 5679 5675 5670 5666 5661 5655 5649 5643 5637 5631 5625 5620 5616 5608
5771 5773 5774 5776 5776 5776 5776 5774 5773 5770 5766 5761 5756 5750 5742 5733 5722 5712 5701 5694 5692 5693 5695 5695 5695 5694 5693 5690 5687 5682 5678 5673 5668 5663 5658 5654 5649 5643 5637 5631 5625 5621 5617 5613
5770 5772 5773 5775 5775 5775 5775 5774 5772 5769 5766 5762 5757 5751 5744 5736 5727 5716 5704 5694 5687 5689 5691 5694 5694 5693 5692 5689 5686 5682 5677 5672 5666 5661 5655 5652 5647 5642 5638 5632 5626 5621 5618 5614
5769 5770 5772 5773 5774 5774 5774 5772 5771 5768 5766 5762 5758 5753 5746 5739 5731 5722 5711 5699 5688 5686 5690 5693 5694 5694 5693 5689 5686 5682 5677 5671 5665 5658 5652 5649 5643 5640 5638 5633 5629 5624 5620 5616
5767 5769 5770 5771 5772 5773 5772 5771 5770 5768 5765 5762 5758 5754 5748 5742 5735 5728 5718 5709 5698 5690 5690 5694 5695 5694 5692 5690 5685 5681 5675 5669 5663 5656 5650 5644 5640 5636 5635 5633 5630 5625 5622 5619
5766 5767 5768 5768 5769 5770 5770 5769 5768 5766 5764 5761 5758 5754 5750 5745 5739 5732 5725 5718 5710 5702 5697 5696 5697 5695 5693 5689 5684 5679 5672 5665 5659 5654 5649 5643 5635 5632 5631 5633 5634 5627 5624 5621
5764 5765 5766 5766 5766 5766 5766 5765 5765 5764 5762 5759 5757 5754 5751 5746 5742 5737 5731 5726 5718 5712 5706 5702 5698 5695 5693 5689 5685 5679 5671 5664 5659 5656 5652 5646 5636 5631 5629 5630 5630 5628 5626 5623
5760 5761 5762 5762 5763 5763 5763 5762 5761 5760 5759 5758 5755 5753 5750 5747 5743 5739 5735 5730 5724 5719 5714 5710 5706 5702 5698 5694 5689 5684 5678 5673 5668 5664 5659 5652 5644 5637 5633 5632 5632 5632 5630 5627
5759 5759 5759 5759 5758 5758 5758 5758 5757 5757 5756 5754 5752 5750 5748 5746 5742 5739 5737 5733 5728 5724 5720 5715 5711 5707 5703 5699 5695 5690 5685 5681 5676 5671 5666 5660 5654 5648 5643 5641 5639 5637 5636 5635
5756 5755 5755 5755 5755 5755 5754 5753 5752 5751 5751 5749 5749 5747 5745 5743 5741 5738 5735 5733 5730 5726 5722 5718 5714 5710 5706 5703 5700 5695 5691 5686 5682 5677 5672 5668 5663 5659 5656 5652 5649 5647 5645 5644
5754 5753 5752 5751 5750 5750 5749 5748 5747 5746 5746 5744 5743 5742 5740 5739 5737 5735 5733 5731 5728 5726 5723 5719 5716 5712 5709 5705 5702 5698 5694 5691 5687 5683 5678 5675 5671 5667 5664 5661 5657 5654 5652 5651
5749 5748 5748 5747 5746 5745 5744 5743 5742 5740 5739 5738 5737 5736 5734 5733 5731 5730 5729 5727 5725 5723 5721 5718 5716 5713 5710 5707 5703 5701 5697 5694 5690 5687 5683 5680 5676 5673 5670 5667 5664 5661 5658 5656
5743 5742 5741 5740 5739 5738 5738 5738 5736 5734 5733 5732 5731 5730 5727 5725 5724 5723 5722 5721 5720 5719 5717 5716 5713 5711 5709 5707 5703 5701 5698 5695 5692 5689 5686 5684 5681 5678 5675 5672 5669 5666 5663 5661
5736 5735 5734 5733 5731 5730 5729 5728 5727 5726 5725 5725 5724 5721 5718 5716 5716 5715 5714 5713 5713 5714 5712 5712 5710 5709 5707 5705 5702 5700 5697 5695 5693 5691 5688 5685 5683 5680 5678 5675 5673 5670 5667 5664
5727 5726 5725 5724 5722 5722 5720 5719 5717 5716 5716 5714 5714 5712 5709 5709 5707 5705 5704 5704 5704 5705 5706 5705 5705 5705 5703 5699 5698 5696 5695 5693 5692 5689 5687 5685 5683 5681 5679 5676 5674 5671 5669 5666
5719 5718 5716 5714 5712 5711 5711 5710 5709 5707 5706 5706 5705 5704 5702 5700 5699 5698 5696 5695 5695 5694 5698 5696 5698 5702 5698 5692 5692 5691 5689 5689 5688 5686 5685 5683 5681 5680 5678 5675 5673 5671 5669 5667
5716 5712 5709 5706 5704 5702 5701 5700 5698 5696 5696 5695 5696 5695 5694 5692 5691 5688 5686 5685 5684 5685 5690 5688 5691 5695 5689 5685 5685 5685 5684 5683 5683 5681 5680 5679 5678 5676 5675 5673 5672 5670 5668 5666
5709 5706 5704 5701 5697 5694 5692 5690 5688 5685 5684 5683 5684 5684 5683 5683 5680 5678 5677 5675 5673 5675 5679 5681 5684 5685 5675 5674 5675 5675 5676 5676 5676 5675 5675 5674 5673 5672 5671 5669 5668 5667 5665 5664
5700 5698 5696 5692 5690 5687 5684 5682 5680 5678 5676 5673 5672 5672 5673 5673 5672 5669 5666 5663 5663 5663 5663 5672 5673 5667 5665 5665 5664 5664 5666 5667 5667 5667 5667 5666 5666 5666 5665 5664 5663 5662 5661 5659
5693 5690 5687 5684 5681 5680 5678 5676 5672 5670 5667 5664 5661 5659 5658 5658 5658 5658 5656 5653 5650 5648 5652 5660 5657 5655 5652 5652 5652 5653 5653 5655 5656 5657 5657 5658 5657 5657 5657 5656 5655 5655 5654 5653
5684 5681 5678 5675 5673 5671 5668 5665 5662 5660 5657 5654 5652 5650 5648 5646 5644 5644 5644 5641 5639 5635 5637 5644 5644 5642 5640 5638 5640 5642 5643 5643 5644 5645 5647 5647 5647 5647 5648 5648 5647 5647 5646 5646
5675 5672 5669 5667 5664 5660 5656 5652 5649 5646 5644 5641 5638 5635 5633 5631 5629 5630 5628 5628 5627 5623 5620 5624 5627 5627 5627 5626 5626 5628 5630 5631 5633 5633 5634 5635 5636 5637 5637 5636 5638 5639 5637 5636
5664 5661 5659 5655 5652 5649 5644 5641 5637 5633 5628 5625 5622 5621 5619 5614 5611 5611 5610 5611 5610 5608 5606 5606 5610 5612 5614 5612 5611 5614 5616 5616 5617 5619 5620 5622 5623 5624 5626 5628 5628 5627 5627 5627
Wind_Speed
3 3 6 9 7 4 6 9 10 18 26 35 42 48 51 48 24 14 14 12 11 10 10 9 10 11 12 14 16 14 17 19 21 22 22 22 21 19 18 20 23 24 28 33
3 5 9 9 5 3 5 6 11 17 26 33 41 45 49 45 26 13 14 12 10 10 7 8 9 9 12 13 14 15 18 23 23 21 21 24 24 22 18 18 19 20 21 24
4 7 9 8 4 2 3 5 9 16 24 31 38 42 47 47 33 14 12 10 10 10 9 6 7 7 6 10 12 15 17 21 24 26 24 24 24 24 21 20 19 20 19 15
4 7 10 8 4 1 3 5 8 15 21 28 35 40 43 47 43 25 11 9 9 11 10 6 7 6 6 9 11 14 18 19 23 26 29 25 22 23 21 20 18 18 21 17
5 8 11 7 4 1 3 5 7 13 20 26 32 36 40 44 48 41 19 10 9 11 10 7 5 5 7 9 12 15 19 23 26 28 30 30 21 20 19 22 16 15 21 12
5 10 11 7 4 2 3 6 8 13 18 23 28 33 38 41 46 49 36 15 8 12 12 10 6 6 9 12 16 20 23 28 34 35 35 33 23 16 18 21 18 14 12 10
6 10 11 7 5 3 4 6 8 11 15 20 26 30 35 38 42 47 50 35 9 9 14 11 7 8 12 17 21 25 29 33 37 40 41 36 25 14 13 16 19 15 13 12
7 10 11 9 8 5 5 7 8 11 14 17 22 27 31 35 39 43 49 51 33 2 14 13 10 11 14 18 21 25 30 34 39 40 40 35 23 15 8 11 14 18 18 14
8 10 12 11 11 9 9 9 10 12 14 16 19 23 27 31 35 38 42 48 48 29 3 13 13 14 16 20 25 29 34 37 38 37 33 30 22 14 5 7 8 13 17 17
9 10 13 13 13 14 13 12 12 13 14 16 18 20 22 25 29 33 36 40 45 43 26 0 15 18 18 24 30 35 34 30 27 23 24 23 20 13 4 5 5 8 13 15
9 11 13 15 17 16 15 15 14 13 14 16 17 18 20 22 23 26 29 32 35 38 39 30 18 9 12 14 18 19 23 19 17 20 23 25 21 15 8 5 5 4 9 12
11 12 13 14 17 20 20 18 18 17 17 16 17 18 18 20 21 21 22 25 27 28 29 29 29 27 25 26 27 30 32 33 30 29 29 33 34 30 26 21 17 15 16 18
12 14 15 15 16 19 21 23 22 21 20 18 18 19 17 19 19 19 17 17 19 21 21 21 22 22 22 22 24 24 24 25 26 27 29 31 34 37 36 34 32 31 30 29
11 12 14 16 17 18 21 22 24 25 25 24 23 21 20 19 19 19 18 15 13 14 16 16 17 17 18 18 20 20 21 22 23 24 26 27 28 29 30 31 32 31 30 28
15 16 16 17 18 19 21 22 23 24 24 26 26 26 25 24 21 20 19 17 15 12 10 11 12 13 14 14 15 15 17 18 19 20 21 23 24 25 24 24 24 24 23 23
19 19 19 20 21 22 22 22 23 24 24 24 24 25 27 27 26 24 22 20 19 16 13 10 9 9 11 12 12 12 13 14 15 16 17 19 19 19 20 20 20 21 22 22
23 24 24 23 22 23 24 24 24 25 26 26 24 23 23 25 27 27 26 25 22 19 18 16 13 12 10 11 11 11 11 11 11 12 13 14 15 16 17 17 17 17 17 17
28 28 29 30 30 30 28 28 29 28 25 23 22 23 25 25 24 28 29 28 27 24 22 19 20 14 14 14 13 13 12 12 11 10 10 10 11 12 13 13 14 15 15 15
28 29 30 30 32 32 32 31 31 30 29 25 21 24 29 25 24 26 29 31 31 30 26 26 23 16 13 20 14 16 14 15 14 13 11 10 10 9 9 9 10 10 10 10
24 29 32 31 31 32 33 33 33 33 32 31 28 28 30 32 31 29 30 29 30 30 28 29 26 15 14 24 17 14 17 15 14 16 14 13 12 11 10 9 9 9 9 9
20 20 21 25 26 28 30 31 31 34 34 33 31 29 28 33 35 38 38 35 35 31 26 29 24 14 23 26 26 22 21 17 16 17 15 15 14 14 14 13 12 11 11 11
26 25 26 24 23 23 24 26 28 32 35 37 35 33 32 33 34 37 41 42 43 39 30 25 19 19 30 29 28 29 26 23 21 21 19 18 18 17 16 16 16 15 15 14
27 26 26 27 28 28 26 26 27 28 28 32 34 35 37 35 38 40 43 44 44 45 42 24 18 29 32 30 31 29 30 29 28 27 24 23 23 21 20 20 19 19 19 18
30 29 27 28 29 29 29 30 30 30 31 32 34 36 35 33 36 41 43 48 51 49 45 24 30 31 36 34 34 34 32 31 29 29 31 30 28 26 25 24 23 22 22 21
34 34 32 32 32 33 33 32 33 34 36 36 37 38 41 42 42 40 40 47 51 54 52 35 33 37 41 40 36 37 36 34 33 31 31 31 32 32 29 29 28 25 24 23
36 36 37 37 36 37 38 38 38 37 38 40 42 44 46 48 49 49 47 45 45 55 58 48 40 40 43 47 43 39 40 40 39 37 35 34 32 33 33 33 30 26 26 27
37 37 39 39 39 40 41 43 45 45 44 43 45 47 49 53 56 53 50 47 49 52 53 56 53 48 44 48 51 42 41 43 43 42 41 38 37 36 35 31 31 30 29 29
Wind_Direction
196 178 154 152 144 101 56 35 26 17 18 18 16 17 15 11 15 38 24 14 7 18 32 32 28 33 64 72 73 73 55 39 29 22 13 4 352 331 316 309 301 297 285 280
176 162 156 154 143 95 51 30 23 17 20 18 18 17 16 13 7 10 8 359 349 354 13 20 21 43 66 62 55 44 36 31 20 15 9 4 5 358 347 337 323 321 312 308
194 171 163 164 155 92 38 17 17 17 16 19 17 17 17 14 11 349 338 339 325 327 343 17 6 29 46 54 45 37 26 22 16 12 3 359 2 3 4 2 354 350 338 339
210 181 175 175 173 126 3 1 11 15 11 17 17 17 16 14 17 7 323 309 303 298 322 352 1 12 30 35 33 23 14 11 10 9 6 359 355 6 16 15 14 28 29 23
200 189 183 183 197 260 348 353 356 12 12 15 16 17 17 17 15 19 360 305 275 271 296 306 353 9 12 13 8 2 360 360 358 358 3 359 357 4 19 23 33 58 67 102
214 193 192 195 212 269 326 342 345 359 7 11 12 15 17 17 18 17 17 351 282 250 262 279 317 346 351 357 357 354 353 350 348 349 351 354 353 354 16 32 36 44 84 125
217 198 199 206 223 266 305 330 341 350 359 6 10 12 15 17 19 20 19 21 349 242 240 252 289 318 340 345 348 345 343 342 339 337 337 345 346 354 9 32 43 42 48 61
216 207 209 217 228 254 297 312 329 339 348 356 2 7 13 16 18 23 26 24 26 4 218 238 267 303 323 327 329 331 329 327 325 327 329 333 339 342 0 24 44 59 58 55
223 220 219 227 236 252 274 300 318 331 339 348 354 1 5 13 17 21 29 32 31 36 159 219 252 282 299 311 318 323 323 319 318 321 322 329 332 327 324 20 37 67 69 74
247 238 233 234 241 251 263 281 297 313 325 337 348 356 0 4 14 20 26 33 38 39 43 49 243 274 291 303 311 317 319 321 322 326 334 338 334 331 310 353 61 67 72 67
255 255 254 252 250 253 262 267 275 292 311 324 334 344 351 357 5 15 24 30 38 44 46 49 46 11 330 335 10 18 23 27 36 41 43 33 24 28 30 47 79 86 73 64
257 257 258 259 259 259 262 267 273 280 290 304 320 332 340 346 353 4 16 26 33 39 46 49 51 53 55 55 52 49 53 59 58 57 51 46 48 54 64 76 80 79 72 61
270 274 272 271 270 267 268 270 272 276 283 291 300 311 321 334 339 346 358 14 27 32 37 41 44 46 45 44 45 45 46 47 50 48 47 46 49 54 62 70 74 75 75 76
281 277 273 274 277 277 279 281 279 277 278 281 285 292 300 311 321 327 335 346 0 20 25 28 31 33 36 38 39 41 43 44 44 45 46 45 47 52 59 66 71 72 72 71
304 296 287 279 276 278 282 286 287 287 285 284 283 285 288 292 296 305 313 321 329 336 355 12 16 17 21 23 28 31 35 40 43 44 46 48 50 52 54 58 63 65 67 66
300 302 301 295 290 289 287 287 288 292 293 293 292 292 289 285 283 284 290 298 305 313 316 319 333 352 359 4 8 14 22 29 33 36 40 45 48 53 56 57 58 59 60 59
288 289 289 290 294 295 296 295 294 293 294 294 293 294 290 289 283 278 277 279 283 290 298 304 305 306 315 324 335 346 355 6 16 23 28 36 43 47 51 53 55 57 59 59
284 284 284 284 285 285 286 288 290 293 297 300 298 291 287 287 286 281 276 273 273 274 279 285 292 303 303 297 305 304 315 327 340 350 0 12 22 33 41 47 50 50 50 50
291 288 286 286 284 283 284 285 286 289 290 285 280 281 283 286 286 284 281 279 275 272 272 272 277 289 304 288 289 292 294 297 305 311 318 327 338 348 0 8 17 25 29 32
313 301 294 289 287 287 287 287 288 288 289 288 286 279 275 278 281 282 284 285 282 281 274 270 273 280 274 273 284 278 279 288 292 294 299 302 306 310 316 326 335 344 350 354
316 318 324 323 314 300 291 288 286 286 285 286 285 283 282 279 277 279 281 283 284 283 284 280 275 266 258 266 268 268 273 278 280 283 288 288 292 294 299 304 309 314 318 325
313 309 307 310 310 307 307 303 297 290 286 284 284 283 278 274 274 277 278 280 280 285 284 285 290 269 257 259 258 258 261 266 269 271 276 281 283 285 288 291 295 300 303 308
314 312 305 301 298 298 298 296 302 309 314 311 310 302 289 281 277 273 275 277 276 278 276 280 286 260 262 259 259 260 259 258 259 264 267 268 272 278 279 282 288 290 294 298
313 312 307 303 303 302 301 297 299 302 303 303 302 302 303 300 286 276 274 272 275 276 279 271 253 258 263 261 255 254 254 254 253 255 259 264 268 270 271 276 279 281 284 291
315 314 312 308 307 304 302 299 299 300 300 300 301 300 300 299 295 294 284 274 272 274 280 275 262 251 257 260 256 253 251 250 252 252 254 257 263 265 267 272 272 275 280 282
313 312 310 310 309 306 303 302 300 300 300 301 300 299 297 295 294 294 290 286 279 273 277 275 265 253 249 257 259 253 252 251 251 253 252 253 257 261 261 264 272 274 270 269
308 309 311 307 305 305 304 304 306 305 304 302 300 300 299 296 296 295 291 288 285 280 276 273 270 263 257 252 258 258 252 249 246 248 250 250 252 256 258 260 264 261 260 262